Weather History for Buffalo, NY

Change the Weather History Date:

Tuesday, August 28, 2012

  Actual Average Record
Temperature  
Mean Temperature 69 °F 68 °F  
Max Temperature 80 °F 77 °F 92 °F (1948)
Min Temperature 58 °F 59 °F 43 °F (1982)
Degree Days  
Heating Degree Days 0 1  
Month to date heating degree days 1 13  
Since 1 June heating degree days 49 86  
Since 1 July heating degree days 1 22  
Cooling Degree Days 4 4  
Month to date cooling degree days 205 149  
Year to date cooling degree days 783 475  
Since 1 June cooling degree days 689 449  
Growing Degree Days 21 (Base 50)    
Moisture  
Dew Point 59 °F    
Average Humidity 68    
Maximum Humidity 93    
Minimum Humidity 42    
Precipitation  
Precipitation 0.00 in 0.10 in 2.16 in (1979)
Month to date precipitation 1.24 2.95  
Year to date precipitation 16.74 24.85  
Snow  
Snow 0.00 in 0.00 in 0.00 in ()
Month to date snowfall 0.0 0.0  
Since 1 June snowfall 0.0 0.0  
Since 1 July snowfall 0.0 0.0  
Snow Depth 0.00 in    
Sea Level Pressure  
Sea Level Pressure 29.97 in    
Wind  
Wind Speed 7 mph (WNW)    
Max Wind Speed 17 mph    
Max Gust Speed 23 mph    
Visibility 8 miles    
Events Fog    
T = Trace of Precipitation, MM = Missing Value Source: NWS Daily Summary

Daily Weather History Graph

Daily Weather History Graph

Search for Another Location

Airport:

Trip Planner

Search our weather history database for the weather conditions in past years. The results will help you decide how hot, cold, wet, or windy it might be!

Date:

Astronomy

Aug. 28, 2012 Rise Set
Actual Time 6:35 AM EDT 7:55 PM EDT
Civil Twilight 6:06 AM EDT 8:24 PM EDT
Nautical Twilight 5:30 AM EDT 9:00 PM EDT
Astronomical Twilight 4:53 AM EDT 9:37 PM EDT
Moon 5:59 PM EDT (8/28) 3:19 AM EDT (8/28)
Length of Visible Light 14h 18m
Length of Day
13h 19m
Waxing Gibbous, 90% of the Moon is Illuminated
Aug 28
Waxing Gibbous
Aug 31
Full
Sep 8
Last Quarter
Sep 15
New
Sep 22
First Quarter

Hourly Weather History & Observations

Time (EDT) Temp. Dew Point Humidity Pressure Visibility Wind Dir Wind Speed Gust Speed Precip Events Conditions
12:35 AM 69.8 °F 66.2 °F 88% 29.93 in 4.0 mi WNW 4.6 mph - N/A   Scattered Clouds
12:54 AM 69.1 °F 66.0 °F 90% 29.92 in 4.0 mi WNW 4.6 mph - N/A   Scattered Clouds
1:54 AM 66.9 °F 64.0 °F 90% 29.92 in 6.0 mi WSW 3.5 mph - N/A   Scattered Clouds
2:54 AM 66.0 °F 63.0 °F 90% 29.92 in 4.0 mi WSW 3.5 mph - N/A   Scattered Clouds
3:54 AM 66.9 °F 64.9 °F 93% 29.92 in 2.5 mi WSW 4.6 mph - N/A Fog Patches of Fog
4:50 AM 66.2 °F 64.4 °F 94% 29.93 in 4.0 mi SW 4.6 mph - N/A   Scattered Clouds
4:54 AM 66.0 °F 64.0 °F 93% 29.92 in 4.0 mi WSW 4.6 mph - N/A   Scattered Clouds
5:54 AM 64.9 °F 61.0 °F 87% 29.93 in 10.0 mi West 3.5 mph - N/A   Scattered Clouds
6:54 AM 64.9 °F 60.1 °F 84% 29.95 in 8.0 mi West 4.6 mph - N/A   Scattered Clouds
7:54 AM 66.0 °F 61.0 °F 84% 29.96 in 10.0 mi WNW 5.8 mph - N/A   Partly Cloudy
8:54 AM 69.1 °F 62.1 °F 78% 29.98 in 10.0 mi WNW 4.6 mph - N/A   Scattered Clouds
9:06 AM 69.8 °F 60.8 °F 73% 29.99 in 10.0 mi West 6.9 mph - N/A   Mostly Cloudy
9:54 AM 70.0 °F 61.0 °F 73% 29.98 in 10.0 mi NW 5.8 mph - N/A   Overcast
10:54 AM 71.1 °F 61.0 °F 70% 29.99 in 10.0 mi West 10.4 mph - N/A   Overcast
11:54 AM 73.9 °F 62.1 °F 66% 30.00 in 10.0 mi West 9.2 mph - N/A   Mostly Cloudy
12:54 PM 75.9 °F 61.0 °F 60% 29.99 in 10.0 mi NW 8.1 mph - N/A   Mostly Cloudy
1:54 PM 77.0 °F 60.1 °F 56% 29.99 in 10.0 mi NW 9.2 mph - N/A   Mostly Cloudy
2:54 PM 79.0 °F 57.9 °F 48% 29.98 in 10.0 mi NNW 17.3 mph 23.0 mph N/A   Mostly Cloudy
3:54 PM 78.1 °F 53.1 °F 42% 29.96 in 10.0 mi NNW 11.5 mph - N/A   Scattered Clouds
4:54 PM 77.0 °F 55.9 °F 48% 29.97 in 10.0 mi NW 9.2 mph - N/A   Scattered Clouds
5:54 PM 75.0 °F 55.0 °F 50% 29.97 in 10.0 mi NNW 11.5 mph - N/A   Scattered Clouds
6:54 PM 73.0 °F 53.1 °F 49% 29.98 in 10.0 mi North 11.5 mph 18.4 mph N/A   Scattered Clouds
7:54 PM 69.1 °F 53.1 °F 57% 29.99 in 10.0 mi North 8.1 mph - N/A   Scattered Clouds
8:54 PM 66.9 °F 53.1 °F 61% 30.01 in 10.0 mi North 8.1 mph - N/A   Scattered Clouds
9:54 PM 64.9 °F 52.0 °F 63% 30.02 in 10.0 mi NNW 10.4 mph - N/A   Scattered Clouds
10:54 PM 62.1 °F 50.0 °F 65% 30.03 in 10.0 mi NNW 4.6 mph - N/A   Partly Cloudy
11:54 PM 62.1 °F 50.0 °F 65% 30.03 in 10.0 mi NW 3.5 mph - N/A   Clear